FENGYUN 1C DEB

Satellite information

Favourite Embed

Satellite Type and Status

DEBRISIN ORBIT

Key statistics

Satellite FENGYUN 1C DEB at a glance.

Uptime

9555

Days in orbit

Revolutions

≈ 14.3

Per day

Orbit

SSO

Sun Synchronous Orbit

Inclination

98.9

Latest

Satellite identification and parameters

Extended collection of information and parameters for FENGYUN 1C DEB.

Object identification

Identified? True

Debris? True

Object name: FENGYUN 1C DEB

International designator: 1999-025RZ

Object number (NORAD): 30120

Object ID (CCSDS): 30120

Country: PEOPLES REPUBLIC OF CHINA (PRC)

Current information (Y/N): Y

RCS size: SMALL

Orbital parameters

Period: 100.98 minutes

Inclination: 98.8597 deg

SMA: 7183.18 km

Apoapsis: 849.407 km

Periapsis: 760.684 km

RAAN: 266.2189 deg

Eccentricy: 0.0061757

Argument of periapsis: 318.334 deg

Mean anomaly: 96.0757 deg

Mean motion: 14.26026498 rev/day

Mean motion (dot): 0.00002752 rev/day2

B* drag term: 0.0011483 1/REarth

Two-line elements (TLE)

Creation date: July 5, 2025, 5:45 p.m.

Reference frame: TEME

Reference center: EARTH

Epoch: July 5, 2025, 5:05 a.m. UTC

TLE line 0: 0 FENGYUN 1C DEB

TLE line 1: 1 30120U 99025RZ 25186.21187248 .00002752 00000-0 11483-2 0 9991

TLE line 2: 2 30120 98.8597 266.2189 0061757 318.3340 96.0757 14.26026498950826

Live tracking on map

Real-time ground track for satellite FENGYUN 1C DEB.

In-orbit conjunctions

A list of the most updated potential collisions computed for object FENGYUN 1C DEB.

Target Orbit TCA Probability of collision Miss distance Type
SL-8 R/B LEO 2024-11-29 16:40:43 0.0002172777 331.0 (m) ROCKET BODY
COSMOS 2278 LEO 2024-11-21 02:24:12 0.000121673 384.0 (m) PAYLOAD
COSMOS 968 LEO 2024-09-06 17:48:35 0.0003088473 66.0 (m) PAYLOAD

Associated space launch

Chinese polar orbiting meteorological satellite

FENGYUN 1C DEB was lifted into orbit during the mission ‘Long March 4B | Feng Yun 1C’, on board a Long March 4B space rocket.

The launch took place on May 10, 1999, 1:33 a.m. from Launch Complex 7.

For more information about the launch, click the button.

Launch to space Long March 4B | Feng Yun 1C
Long March 4B | Feng Yun 1C

Agency: N/A

Status: Launch Successful

Launch date: May 10, 1999, 1:33 a.m. UTC

Rocket: Long March 4B

Launch pad: Launch Complex 7

Location: Taiyuan Satellite Launch Center, People's Republic of China

...

Latest news about this satellite

There are no fresh news available about this satellite. Check back as we update our databases every day.


Newsletter sign-up

Weekly statistics, charts and insights to help you stay on top of the space industry.